Time,TemperatureF,DewpointF,PressureIn,WindDirection,WindDirectionDegrees,WindSpeedMPH,WindSpeedGustMPH,Humidity,HourlyPrecipIn,Conditions,Clouds,dailyrainin,SoftwareType,DateUTC
2013-05-21 00:01:00,67.0,29.0,-100.00,NW,326,2.0,5.0,24,-99.99,,,-99.99,,2013-05-21 07:01:00,
2013-05-21 00:11:00,65.0,29.0,-100.00,NNE,18,5.0,8.0,26,-99.99,,,-99.99,,2013-05-21 07:11:00,
2013-05-21 00:21:00,67.0,29.0,-100.00,NNW,347,6.0,8.0,24,-99.99,,,-99.99,,2013-05-21 07:21:00,
2013-05-21 00:31:00,65.0,30.0,-100.00,WNW,283,1.0,4.0,27,-99.99,,,-99.99,,2013-05-21 07:31:00,
2013-05-21 00:41:00,65.0,30.0,-100.00,WNW,283,1.0,4.0,27,-99.99,,,-99.99,,2013-05-21 07:41:00,
2013-05-21 00:51:00,64.0,31.0,-100.00,NW,306,2.0,6.0,29,-99.99,,,-99.99,,2013-05-21 07:51:00,
2013-05-21 01:01:00,64.0,31.0,-100.00,NW,306,2.0,6.0,29,-99.99,,,-99.99,,2013-05-21 08:01:00,
2013-05-21 01:11:00,64.0,31.0,-100.00,NW,306,2.0,6.0,29,-99.99,,,-99.99,,2013-05-21 08:11:00,
2013-05-21 01:21:00,65.0,32.0,-100.00,West,278,1.0,3.0,29,-99.99,,,-99.99,,2013-05-21 08:21:00,
2013-05-21 01:31:00,65.0,32.0,-100.00,West,278,1.0,3.0,29,-99.99,,,-99.99,,2013-05-21 08:31:00,
2013-05-21 01:41:00,65.0,32.0,-100.00,West,278,1.0,3.0,29,-99.99,,,-99.99,,2013-05-21 08:41:00,
2013-05-21 01:52:00,65.0,33.0,-100.00,WNW,296,1.0,2.0,30,-99.99,,,-99.99,,2013-05-21 08:52:00,
2013-05-21 02:01:00,65.0,33.0,-100.00,East,79,0.0,2.0,30,-99.99,,,-99.99,,2013-05-21 09:01:00,
2013-05-21 02:11:00,64.0,34.0,-100.00,North,349,1.0,3.0,32,-99.99,,,-99.99,,2013-05-21 09:11:00,
2013-05-21 02:21:00,65.0,34.0,-100.00,North,9,1.0,4.0,31,-99.99,,,-99.99,,2013-05-21 09:21:00,
2013-05-21 02:32:00,68.0,35.0,-100.00,North,350,2.0,4.0,30,-99.99,,,-99.99,,2013-05-21 09:32:00,
2013-05-21 02:52:00,65.0,34.0,-100.00,WNW,296,1.0,1.0,32,-99.99,,,-99.99,,2013-05-21 09:52:00,
2013-05-21 03:02:00,65.0,34.0,-100.00,WNW,296,1.0,1.0,32,-99.99,,,-99.99,,2013-05-21 10:02:00,
2013-05-21 03:12:00,65.0,34.0,-100.00,WNW,296,1.0,1.0,32,-99.99,,,-99.99,,2013-05-21 10:12:00,
2013-05-21 03:22:00,64.0,34.0,-100.00,ENE,73,0.0,1.0,33,-99.99,,,-99.99,,2013-05-21 10:22:00,
2013-05-21 03:32:00,65.0,35.0,-100.00,WSW,246,1.0,2.0,33,-99.99,,,-99.99,,2013-05-21 10:32:00,
2013-05-21 03:42:00,64.0,34.0,-100.00,ESE,106,0.0,1.0,33,-99.99,,,-99.99,,2013-05-21 10:42:00,
2013-05-21 03:52:00,64.0,34.0,-100.00,SSE,148,1.0,2.0,33,-99.99,,,-99.99,,2013-05-21 10:52:00,
2013-05-21 04:02:00,64.0,34.0,-100.00,ENE,61,3.0,5.0,33,-99.99,,,-99.99,,2013-05-21 11:02:00,
2013-05-21 04:11:00,66.0,35.0,-100.00,NE,42,2.0,4.0,32,-99.99,,,-99.99,,2013-05-21 11:11:00,
2013-05-21 04:21:00,64.0,35.0,-100.00,ENE,78,3.0,7.0,34,-99.99,,,-99.99,,2013-05-21 11:21:00,
2013-05-21 04:31:00,64.0,33.0,-100.00,ENE,76,4.0,5.0,31,-99.99,,,-99.99,,2013-05-21 11:31:00,
2013-05-21 04:41:00,64.0,30.0,-100.00,ENE,75,5.0,7.0,28,-99.99,,,-99.99,,2013-05-21 11:41:00,
2013-05-21 04:51:00,64.0,28.0,-100.00,East,80,5.0,6.0,26,-99.99,,,-99.99,,2013-05-21 11:51:00,
2013-05-21 05:01:00,65.0,27.0,-100.00,ENE,74,4.0,7.0,24,-99.99,,,-99.99,,2013-05-21 12:01:00,
2013-05-21 05:11:00,65.0,28.0,-100.00,ENE,72,4.0,6.0,25,-99.99,,,-99.99,,2013-05-21 12:11:00,
2013-05-21 05:21:00,65.0,27.0,-100.00,ENE,71,3.0,5.0,24,-99.99,,,-99.99,,2013-05-21 12:21:00,
2013-05-21 05:31:00,65.0,28.0,-100.00,ENE,70,2.0,4.0,25,-99.99,,,-99.99,,2013-05-21 12:31:00,
2013-05-21 05:41:00,65.0,28.0,-100.00,ENE,64,3.0,5.0,25,-99.99,,,-99.99,,2013-05-21 12:41:00,
2013-05-21 05:51:00,65.0,28.0,-100.00,ENE,66,3.0,5.0,25,-99.99,,,-99.99,,2013-05-21 12:51:00,
2013-05-21 06:01:00,65.0,28.0,-100.00,ENE,70,3.0,5.0,25,-99.99,,,-99.99,,2013-05-21 13:01:00,
2013-05-21 06:11:00,65.0,27.0,-100.00,ENE,66,4.0,5.0,24,-99.99,,,-99.99,,2013-05-21 13:11:00,
2013-05-21 06:31:00,65.0,26.0,-100.00,ENE,65,3.0,5.0,23,-99.99,,,-99.99,,2013-05-21 13:31:00,
2013-05-21 06:41:00,65.0,27.0,-100.00,East,101,1.0,2.0,24,-99.99,,,-99.99,,2013-05-21 13:41:00,
2013-05-21 06:52:00,65.0,27.0,-100.00,ENE,69,1.0,2.0,24,-99.99,,,-99.99,,2013-05-21 13:52:00,
2013-05-21 07:01:00,65.0,27.0,-100.00,ENE,66,2.0,4.0,24,-99.99,,,-99.99,,2013-05-21 14:01:00,
2013-05-21 07:11:00,66.0,27.0,-100.00,ENE,75,3.0,4.0,23,-99.99,,,-99.99,,2013-05-21 14:11:00,
2013-05-21 07:31:00,67.0,28.0,-100.00,NE,55,3.0,4.0,23,-99.99,,,-99.99,,2013-05-21 14:31:00,
2013-05-21 07:40:00,71.0,31.0,-100.00,East,101,1.0,2.0,23,-99.99,,,-99.99,,2013-05-21 14:40:00,
2013-05-21 07:41:00,68.0,30.0,-100.00,NE,56,1.0,3.0,24,-99.99,,,-99.99,,2013-05-21 14:41:00,
2013-05-21 08:11:00,71.0,31.0,-100.00,East,101,1.0,2.0,23,-99.99,,,-99.99,,2013-05-21 15:11:00,
2013-05-21 08:53:00,70.0,32.0,-100.00,WNW,298,1.0,2.0,24,-99.99,,,-99.99,,2013-05-21 15:53:00,
2013-05-21 09:02:00,70.0,32.0,-100.00,WNW,298,1.0,2.0,24,-99.99,,,-99.99,,2013-05-21 16:02:00,
2013-05-21 09:12:00,70.0,32.0,-100.00,WNW,298,1.0,2.0,24,-99.99,,,-99.99,,2013-05-21 16:12:00,
2013-05-21 09:23:00,70.0,34.0,-100.00,West,268,4.0,9.0,26,-99.99,,,-99.99,,2013-05-21 16:23:00,
2013-05-21 09:32:00,71.0,32.0,-100.00,West,267,4.0,8.0,24,-99.99,,,-99.99,,2013-05-21 16:32:00,
2013-05-21 09:42:00,71.0,32.0,-100.00,WSW,250,5.0,8.0,24,-99.99,,,-99.99,,2013-05-21 16:42:00,
2013-05-21 09:52:00,71.0,31.0,-100.00,West,272,5.0,9.0,23,-99.99,,,-99.99,,2013-05-21 16:52:00,
2013-05-21 10:02:00,71.0,31.0,-100.00,West,272,5.0,9.0,23,-99.99,,,-99.99,,2013-05-21 17:02:00,
2013-05-21 10:11:00,71.0,30.0,-100.00,WSW,257,6.0,14.0,22,-99.99,,,-99.99,,2013-05-21 17:11:00,
2013-05-21 10:22:00,72.0,30.0,-100.00,West,271,7.0,15.0,21,-99.99,,,-99.99,,2013-05-21 17:22:00,
2013-05-21 10:32:00,72.0,30.0,-100.00,West,268,9.0,14.0,21,-99.99,,,-99.99,,2013-05-21 17:32:00,
2013-05-21 10:43:00,72.0,30.0,-100.00,West,259,11.0,17.0,21,-99.99,,,-99.99,,2013-05-21 17:43:00,
2013-05-21 10:52:00,72.0,31.0,-100.00,WSW,250,9.0,16.0,22,-99.99,,,-99.99,,2013-05-21 17:52:00,
2013-05-21 11:01:00,72.0,30.0,-100.00,West,273,11.0,19.0,21,-99.99,,,-99.99,,2013-05-21 18:01:00,
2013-05-21 11:11:00,72.0,30.0,-100.00,West,267,11.0,19.0,21,-99.99,,,-99.99,,2013-05-21 18:11:00,
2013-05-21 11:22:00,73.0,28.0,-100.00,West,272,12.0,21.0,19,-99.99,,,-99.99,,2013-05-21 18:22:00,
2013-05-21 11:32:00,73.0,27.0,-100.00,West,262,12.0,19.0,18,-99.99,,,-99.99,,2013-05-21 18:32:00,
2013-05-21 11:42:00,73.0,28.0,-100.00,WSW,256,11.0,19.0,19,-99.99,,,-99.99,,2013-05-21 18:42:00,
2013-05-21 11:51:00,73.0,27.0,-100.00,WSW,257,13.0,21.0,18,-99.99,,,-99.99,,2013-05-21 18:51:00,
2013-05-21 12:01:00,73.0,26.0,-100.00,WSW,256,12.0,19.0,17,-99.99,,,-99.99,,2013-05-21 19:01:00,
2013-05-21 12:11:00,73.0,28.0,-100.00,West,266,14.0,23.0,19,-99.99,,,-99.99,,2013-05-21 19:11:00,
2013-05-21 12:21:00,73.0,30.0,-100.00,West,259,14.0,20.0,20,-99.99,,,-99.99,,2013-05-21 19:21:00,
2013-05-21 12:31:00,73.0,31.0,-100.00,WSW,256,14.0,24.0,21,-99.99,,,-99.99,,2013-05-21 19:31:00,
2013-05-21 12:41:00,73.0,31.0,-100.00,West,259,14.0,22.0,21,-99.99,,,-99.99,,2013-05-21 19:41:00,
2013-05-21 12:52:00,73.0,31.0,-100.00,WSW,255,15.0,26.0,21,-99.99,,,-99.99,,2013-05-21 19:52:00,
2013-05-21 13:03:00,73.0,33.0,-100.00,WSW,249,14.0,24.0,23,-99.99,,,-99.99,,2013-05-21 20:03:00,
2013-05-21 13:11:00,73.0,32.0,-100.00,West,263,14.0,25.0,22,-99.99,,,-99.99,,2013-05-21 20:11:00,
2013-05-21 13:21:00,72.0,30.0,-100.00,WSW,258,15.0,22.0,21,-99.99,,,-99.99,,2013-05-21 20:21:00,
2013-05-21 13:32:00,73.0,34.0,-100.00,WSW,256,14.0,24.0,24,-99.99,,,-99.99,,2013-05-21 20:32:00,
2013-05-21 13:42:00,73.0,34.0,-100.00,West,263,16.0,25.0,24,-99.99,,,-99.99,,2013-05-21 20:42:00,
2013-05-21 13:52:00,73.0,36.0,-100.00,West,263,16.0,27.0,26,-99.99,,,-99.99,,2013-05-21 20:52:00,
2013-05-21 14:01:00,72.0,35.0,-100.00,West,264,17.0,24.0,26,-99.99,,,-99.99,,2013-05-21 21:01:00,
2013-05-21 14:11:00,72.0,37.0,-100.00,WSW,251,15.0,21.0,28,-99.99,,,-99.99,,2013-05-21 21:11:00,
2013-05-21 14:21:00,72.0,37.0,-100.00,WSW,258,15.0,21.0,28,-99.99,,,-99.99,,2013-05-21 21:21:00,
2013-05-21 14:32:00,71.0,37.0,-100.00,West,265,17.0,24.0,29,-99.99,,,-99.99,,2013-05-21 21:32:00,
2013-05-21 14:43:00,71.0,39.0,-100.00,WSW,255,15.0,22.0,31,-99.99,,,-99.99,,2013-05-21 21:43:00,
2013-05-21 14:53:00,72.0,39.0,-100.00,West,267,16.0,24.0,30,-99.99,,,-99.99,,2013-05-21 21:53:00,
2013-05-21 15:02:00,71.0,38.0,-100.00,West,263,17.0,23.0,30,-99.99,,,-99.99,,2013-05-21 22:02:00,
2013-05-21 15:12:00,71.0,39.0,-100.00,West,263,16.0,22.0,31,-99.99,,,-99.99,,2013-05-21 22:12:00,
2013-05-21 15:22:00,71.0,40.0,-100.00,West,260,16.0,25.0,32,-99.99,,,-99.99,,2013-05-21 22:22:00,
2013-05-21 15:33:00,71.0,39.0,-100.00,West,264,15.0,23.0,31,-99.99,,,-99.99,,2013-05-21 22:33:00,
2013-05-21 15:41:00,71.0,39.0,-100.00,West,263,17.0,25.0,31,-99.99,,,-99.99,,2013-05-21 22:41:00,
2013-05-21 15:52:00,71.0,38.0,-100.00,West,261,15.0,21.0,30,-99.99,,,-99.99,,2013-05-21 22:52:00,
2013-05-21 16:02:00,71.0,40.0,-100.00,West,259,15.0,22.0,32,-99.99,,,-99.99,,2013-05-21 23:02:00,
2013-05-21 16:12:00,70.0,40.0,-100.00,West,260,15.0,22.0,33,-99.99,,,-99.99,,2013-05-21 23:12:00,
2013-05-21 16:22:00,71.0,40.0,-100.00,West,260,13.0,21.0,32,-99.99,,,-99.99,,2013-05-21 23:22:00,
2013-05-21 16:32:00,71.0,38.0,-100.00,West,261,14.0,21.0,30,-99.99,,,-99.99,,2013-05-21 23:32:00,
2013-05-21 16:42:00,71.0,39.0,-100.00,WSW,251,14.0,21.0,31,-99.99,,,-99.99,,2013-05-21 23:42:00,
2013-05-21 16:52:00,71.0,40.0,-100.00,WSW,255,16.0,23.0,32,-99.99,,,-99.99,,2013-05-21 23:52:00,
2013-05-21 17:01:00,70.0,38.0,-100.00,West,263,18.0,24.0,31,-99.99,,,-99.99,,2013-05-22 00:01:00,
2013-05-21 17:11:00,70.0,39.0,-100.00,West,263,17.0,25.0,32,-99.99,,,-99.99,,2013-05-22 00:11:00,
2013-05-21 17:21:00,70.0,38.0,-100.00,West,263,16.0,21.0,31,-99.99,,,-99.99,,2013-05-22 00:21:00,
2013-05-21 17:31:00,70.0,38.0,-100.00,West,263,16.0,21.0,31,-99.99,,,-99.99,,2013-05-22 00:31:00,
2013-05-21 17:41:00,69.0,39.0,-100.00,West,264,14.0,20.0,33,-99.99,,,-99.99,,2013-05-22 00:41:00,
2013-05-21 17:51:00,69.0,41.0,-100.00,West,262,15.0,21.0,36,-99.99,,,-99.99,,2013-05-22 00:51:00,
2013-05-21 18:01:00,70.0,40.0,-100.00,WSW,247,11.0,17.0,34,-99.99,,,-99.99,,2013-05-22 01:01:00,
2013-05-21 18:11:00,69.0,39.0,-100.00,WSW,251,12.0,19.0,34,-99.99,,,-99.99,,2013-05-22 01:11:00,
2013-05-21 18:21:00,69.0,42.0,-100.00,WSW,246,11.0,19.0,37,-99.99,,,-99.99,,2013-05-22 01:21:00,
2013-05-21 18:31:00,68.0,41.0,-100.00,SW,231,12.0,17.0,38,-99.99,,,-99.99,,2013-05-22 01:31:00,
2013-05-21 18:41:00,67.0,42.0,-100.00,WSW,241,12.0,18.0,40,-99.99,,,-99.99,,2013-05-22 01:41:00,
2013-05-21 18:52:00,67.0,43.0,-100.00,WSW,243,12.0,20.0,41,-99.99,,,-99.99,,2013-05-22 01:52:00,
2013-05-21 19:01:00,67.0,44.0,-100.00,WSW,237,11.0,17.0,43,-99.99,,,-99.99,,2013-05-22 02:01:00,
2013-05-21 19:11:00,66.0,45.0,-100.00,SW,235,11.0,16.0,46,-99.99,,,-99.99,,2013-05-22 02:11:00,
2013-05-21 19:21:00,65.0,46.0,-100.00,WSW,241,14.0,19.0,51,-99.99,,,-99.99,,2013-05-22 02:21:00,
2013-05-21 19:32:00,65.0,46.0,-100.00,SW,235,11.0,17.0,50,-99.99,,,-99.99,,2013-05-22 02:32:00,
2013-05-21 19:41:00,64.0,46.0,-100.00,WSW,240,11.0,17.0,52,-99.99,,,-99.99,,2013-05-22 02:41:00,
2013-05-21 19:51:00,64.0,46.0,-100.00,SW,236,9.0,15.0,52,-99.99,,,-99.99,,2013-05-22 02:51:00,
2013-05-21 20:01:00,62.0,48.0,-100.00,SW,223,9.0,11.0,60,-99.99,,,-99.99,,2013-05-22 03:01:00,
2013-05-21 20:11:00,61.0,48.0,-100.00,SW,220,8.0,11.0,63,-99.99,,,-99.99,,2013-05-22 03:11:00,
2013-05-21 20:21:00,61.0,49.0,-100.00,SW,217,7.0,10.0,64,-99.99,,,-99.99,,2013-05-22 03:21:00,
2013-05-21 20:33:00,60.0,47.0,-100.00,SW,219,8.0,11.0,61,-99.99,,,-99.99,,2013-05-22 03:33:00,
2013-05-21 20:43:00,60.0,49.0,-100.00,SW,216,9.0,11.0,66,-99.99,,,-99.99,,2013-05-22 03:43:00,
2013-05-21 20:53:00,60.0,47.0,-100.00,SSW,207,9.0,11.0,62,-99.99,,,-99.99,,2013-05-22 03:53:00,
2013-05-21 21:03:00,60.0,47.0,-100.00,WSW,252,6.0,10.0,61,-99.99,,,-99.99,,2013-05-22 04:03:00,
2013-05-21 21:12:00,59.0,46.0,-100.00,West,263,5.0,8.0,63,-99.99,,,-99.99,,2013-05-22 04:12:00,
2013-05-21 21:22:00,59.0,47.0,-100.00,West,268,6.0,10.0,65,-99.99,,,-99.99,,2013-05-22 04:22:00,
2013-05-21 21:33:00,58.0,46.0,-100.00,SW,236,6.0,9.0,65,-99.99,,,-99.99,,2013-05-22 04:33:00,
2013-05-21 21:42:00,58.0,44.0,-100.00,SSW,193,5.0,8.0,59,-99.99,,,-99.99,,2013-05-22 04:42:00,
2013-05-21 21:52:00,58.0,39.0,-100.00,SSW,211,4.0,9.0,49,-99.99,,,-99.99,,2013-05-22 04:52:00,
2013-05-21 22:02:00,59.0,35.0,-100.00,SSW,212,4.0,8.0,41,-99.99,,,-99.99,,2013-05-22 05:02:00,
2013-05-21 22:11:00,59.0,33.0,-100.00,SSW,201,4.0,8.0,38,-99.99,,,-99.99,,2013-05-22 05:11:00,
2013-05-21 22:21:00,59.0,35.0,-100.00,South,185,5.0,8.0,40,-99.99,,,-99.99,,2013-05-22 05:21:00,
2013-05-21 22:31:00,59.0,38.0,-100.00,South,182,3.0,7.0,45,-99.99,,,-99.99,,2013-05-22 05:31:00,
2013-05-21 22:42:00,58.0,36.0,-100.00,SW,219,3.0,6.0,43,-99.99,,,-99.99,,2013-05-22 05:42:00,
2013-05-21 22:51:00,58.0,33.0,-100.00,SW,226,4.0,6.0,38,-99.99,,,-99.99,,2013-05-22 05:51:00,
2013-05-21 23:01:00,58.0,31.0,-100.00,SSW,200,3.0,6.0,36,-99.99,,,-99.99,,2013-05-22 06:01:00,
2013-05-21 23:11:00,58.0,31.0,-100.00,SW,217,2.0,7.0,36,-99.99,,,-99.99,,2013-05-22 06:11:00,
2013-05-21 23:21:00,58.0,30.0,-100.00,SSW,193,3.0,7.0,34,-99.99,,,-99.99,,2013-05-22 06:21:00,
2013-05-21 23:31:00,59.0,30.0,-100.00,South,175,4.0,7.0,33,-99.99,,,-99.99,,2013-05-22 06:31:00,
2013-05-21 23:41:00,59.0,28.0,-100.00,South,189,5.0,7.0,31,-99.99,,,-99.99,,2013-05-22 06:41:00,
2013-05-21 23:52:00,59.0,28.0,-100.00,SW,215,5.0,8.0,31,-99.99,,,-99.99,,2013-05-22 06:52:00,